﻿測定場所 (Monitoring sites),日付 (Measurement date),時間 (Measurement time),線量率 最大値 (max) μGy/h,線量率 最小値 (min) μGy/h,線量率 平均値 (average) μGy/h,
大田 (Ota),2013-06-23,23:01～24:00,0.0514,0.0447,0.0485,
大田 (Ota),2013-06-23,22:01～23:00,0.0519,0.0447,0.0483,
大田 (Ota),2013-06-23,21:01～22:00,0.0515,0.0454,0.0486,
大田 (Ota),2013-06-23,20:01～21:00,0.0528,0.0463,0.0487,
大田 (Ota),2013-06-23,19:01～20:00,0.0512,0.0448,0.0484,
大田 (Ota),2013-06-23,18:01～19:00,0.0517,0.0457,0.0487,
大田 (Ota),2013-06-23,17:01～18:00,0.0517,0.0461,0.0484,
大田 (Ota),2013-06-23,16:01～17:00,0.0508,0.0464,0.0483,
大田 (Ota),2013-06-23,15:01～16:00,0.0517,0.0451,0.0489,
大田 (Ota),2013-06-23,14:01～15:00,0.0512,0.0442,0.0483,
大田 (Ota),2013-06-23,13:01～14:00,0.0536,0.0457,0.0486,
大田 (Ota),2013-06-23,12:01～13:00,0.0525,0.0451,0.0487,
大田 (Ota),2013-06-23,11:01～12:00,0.0521,0.0452,0.0491,
大田 (Ota),2013-06-23,10:01～11:00,0.0516,0.0449,0.0485,
大田 (Ota),2013-06-23,09:01～10:00,0.0511,0.0454,0.0485,
大田 (Ota),2013-06-23,08:01～09:00,0.0536,0.0442,0.0478,
大田 (Ota),2013-06-23,07:01～08:00,0.0528,0.0447,0.0484,
大田 (Ota),2013-06-23,06:01～07:00,0.0524,0.0444,0.0487,
大田 (Ota),2013-06-23,05:01～06:00,0.0523,0.0447,0.0480,
大田 (Ota),2013-06-23,04:01～05:00,0.0511,0.0431,0.0479,
大田 (Ota),2013-06-23,03:01～04:00,0.0520,0.0445,0.0483,
大田 (Ota),2013-06-23,02:01～03:00,0.0510,0.0453,0.0483,
大田 (Ota),2013-06-23,01:01～02:00,0.0521,0.0442,0.0485,
大田 (Ota),2013-06-23,00:01～01:00,0.0515,0.0450,0.0483,
大田 (Ota),2013-06-22,23:01～24:00,0.0516,0.0451,0.0489,
大田 (Ota),2013-06-22,22:01～23:00,0.0514,0.0446,0.0483,
大田 (Ota),2013-06-22,21:01～22:00,0.0525,0.0449,0.0485,
大田 (Ota),2013-06-22,20:01～21:00,0.0510,0.0458,0.0483,
大田 (Ota),2013-06-22,19:01～20:00,0.0517,0.0455,0.0483,
大田 (Ota),2013-06-22,18:01～19:00,0.0526,0.0457,0.0485,
大田 (Ota),2013-06-22,17:01～18:00,0.0523,0.0444,0.0481,
大田 (Ota),2013-06-22,16:01～17:00,0.0517,0.0454,0.0482,
大田 (Ota),2013-06-22,15:01～16:00,0.0514,0.0452,0.0484,
大田 (Ota),2013-06-22,14:01～15:00,0.0523,0.0446,0.0482,
大田 (Ota),2013-06-22,13:01～14:00,0.0525,0.0454,0.0488,
大田 (Ota),2013-06-22,12:01～13:00,0.0515,0.0448,0.0487,
大田 (Ota),2013-06-22,11:01～12:00,0.0526,0.0451,0.0485,
大田 (Ota),2013-06-22,10:01～11:00,0.0523,0.0447,0.0487,
大田 (Ota),2013-06-22,09:01～10:00,0.0522,0.0456,0.0484,
大田 (Ota),2013-06-22,08:01～09:00,0.0517,0.0463,0.0487,
大田 (Ota),2013-06-22,07:01～08:00,0.0518,0.0446,0.0484,
大田 (Ota),2013-06-22,06:01～07:00,0.0517,0.0449,0.0482,
大田 (Ota),2013-06-22,05:01～06:00,0.0531,0.0456,0.0484,
大田 (Ota),2013-06-22,04:01～05:00,0.0506,0.0448,0.0481,
大田 (Ota),2013-06-22,03:01～04:00,0.0533,0.0440,0.0487,
大田 (Ota),2013-06-22,02:01～03:00,0.0525,0.0448,0.0487,
大田 (Ota),2013-06-22,01:01～02:00,0.0580,0.0465,0.0523,
大田 (Ota),2013-06-22,00:01～01:00,0.0688,0.0545,0.0619,
大田 (Ota),2013-06-21,23:01～24:00,0.0714,0.0537,0.0623,
大田 (Ota),2013-06-21,22:01～23:00,0.0598,0.0532,0.0571,
大田 (Ota),2013-06-21,21:01～22:00,0.0596,0.0499,0.0554,
大田 (Ota),2013-06-21,20:01～21:00,0.0590,0.0525,0.0553,
大田 (Ota),2013-06-21,19:01～20:00,0.0569,0.0491,0.0533,
大田 (Ota),2013-06-21,18:01～19:00,0.0561,0.0481,0.0518,
大田 (Ota),2013-06-21,17:01～18:00,0.0572,0.0505,0.0540,
大田 (Ota),2013-06-21,16:01～17:00,0.0557,0.0498,0.0530,
大田 (Ota),2013-06-21,15:01～16:00,0.0561,0.0495,0.0526,
大田 (Ota),2013-06-21,14:01～15:00,0.0550,0.0487,0.0519,
大田 (Ota),2013-06-21,13:01～14:00,0.0537,0.0476,0.0512,
大田 (Ota),2013-06-21,12:01～13:00,0.0547,0.0476,0.0509,
大田 (Ota),2013-06-21,11:01～12:00,0.0583,0.0484,0.0532,
大田 (Ota),2013-06-21,10:01～11:00,0.0530,0.0444,0.0493,
大田 (Ota),2013-06-21,09:01～10:00,0.0514,0.0449,0.0480,
大田 (Ota),2013-06-21,08:01～09:00,0.0533,0.0448,0.0483,
大田 (Ota),2013-06-21,07:01～08:00,0.0517,0.0442,0.0479,
大田 (Ota),2013-06-21,06:01～07:00,0.0519,0.0443,0.0479,
大田 (Ota),2013-06-21,05:01～06:00,0.0507,0.0445,0.0479,
大田 (Ota),2013-06-21,04:01～05:00,0.0516,0.0438,0.0479,
大田 (Ota),2013-06-21,03:01～04:00,0.0515,0.0440,0.0476,
大田 (Ota),2013-06-21,02:01～03:00,0.0527,0.0450,0.0476,
大田 (Ota),2013-06-21,01:01～02:00,0.0533,0.0447,0.0479,
大田 (Ota),2013-06-21,00:01～01:00,0.0505,0.0442,0.0477,
大田 (Ota),2013-06-20,23:01～24:00,0.0516,0.0434,0.0477,
大田 (Ota),2013-06-20,22:01～23:00,0.0524,0.0455,0.0488,
大田 (Ota),2013-06-20,21:01～22:00,0.0547,0.0466,0.0502,
大田 (Ota),2013-06-20,20:01～21:00,0.0623,0.0498,0.0564,
大田 (Ota),2013-06-20,19:01～20:00,0.0618,0.0517,0.0572,
大田 (Ota),2013-06-20,18:01～19:00,0.0599,0.0509,0.0554,
大田 (Ota),2013-06-20,17:01～18:00,0.0622,0.0507,0.0556,
大田 (Ota),2013-06-20,16:01～17:00,0.0589,0.0503,0.0549,
大田 (Ota),2013-06-20,15:01～16:00,0.0559,0.0485,0.0521,
大田 (Ota),2013-06-20,14:01～15:00,0.0554,0.0465,0.0524,
大田 (Ota),2013-06-20,13:01～14:00,0.0565,0.0493,0.0530,
大田 (Ota),2013-06-20,12:01～13:00,0.0570,0.0498,0.0535,
大田 (Ota),2013-06-20,11:01～12:00,0.0533,0.0453,0.0494,
大田 (Ota),2013-06-20,10:01～11:00,0.0512,0.0449,0.0485,
大田 (Ota),2013-06-20,09:01～10:00,0.0512,0.0457,0.0485,
大田 (Ota),2013-06-20,08:01～09:00,0.0533,0.0446,0.0488,
大田 (Ota),2013-06-20,07:01～08:00,0.0541,0.0449,0.0486,
大田 (Ota),2013-06-20,06:01～07:00,0.0541,0.0474,0.0511,
大田 (Ota),2013-06-20,05:01～06:00,0.0621,0.0520,0.0561,
大田 (Ota),2013-06-20,04:01～05:00,0.0624,0.0537,0.0568,
大田 (Ota),2013-06-20,03:01～04:00,0.0620,0.0529,0.0577,
大田 (Ota),2013-06-20,02:01～03:00,0.0618,0.0541,0.0574,
大田 (Ota),2013-06-20,01:01～02:00,0.0646,0.0547,0.0594,
大田 (Ota),2013-06-20,00:01～01:00,0.0641,0.0534,0.0596,
大田 (Ota),2013-06-19,23:01～24:00,0.0603,0.0506,0.0552,
大田 (Ota),2013-06-19,22:01～23:00,0.0573,0.0488,0.0535,
大田 (Ota),2013-06-19,21:01～22:00,0.0545,0.0481,0.0518,
大田 (Ota),2013-06-19,20:01～21:00,0.0597,0.0509,0.0548,
大田 (Ota),2013-06-19,19:01～20:00,0.0629,0.0525,0.0577,
大田 (Ota),2013-06-19,18:01～19:00,0.0558,0.0499,0.0530,
大田 (Ota),2013-06-19,17:01～18:00,0.0539,0.0482,0.0513,
大田 (Ota),2013-06-19,16:01～17:00,0.0554,0.0474,0.0511,
大田 (Ota),2013-06-19,15:01～16:00,0.0514,0.0452,0.0485,
大田 (Ota),2013-06-19,14:01～15:00,0.0521,0.0452,0.0484,
大田 (Ota),2013-06-19,13:01～14:00,0.0527,0.0456,0.0481,
大田 (Ota),2013-06-19,12:01～13:00,0.0511,0.0450,0.0478,
大田 (Ota),2013-06-19,11:01～12:00,0.0512,0.0450,0.0481,
大田 (Ota),2013-06-19,10:01～11:00,0.0520,0.0445,0.0485,
大田 (Ota),2013-06-19,09:01～10:00,0.0514,0.0454,0.0488,
大田 (Ota),2013-06-19,08:01～09:00,0.0519,0.0454,0.0484,
大田 (Ota),2013-06-19,07:01～08:00,0.0510,0.0453,0.0483,
大田 (Ota),2013-06-19,06:01～07:00,0.0525,0.0441,0.0495,
大田 (Ota),2013-06-19,05:01～06:00,0.0578,0.0484,0.0518,
大田 (Ota),2013-06-19,04:01～05:00,0.0537,0.0465,0.0501,
大田 (Ota),2013-06-19,03:01～04:00,0.0529,0.0446,0.0486,
大田 (Ota),2013-06-19,02:01～03:00,0.0525,0.0457,0.0485,
大田 (Ota),2013-06-19,01:01～02:00,0.0520,0.0454,0.0484,
大田 (Ota),2013-06-19,00:01～01:00,0.0515,0.0446,0.0484,
大田 (Ota),2013-06-18,23:01～24:00,0.0527,0.0447,0.0482,
大田 (Ota),2013-06-18,22:01～23:00,0.0507,0.0447,0.0481,
大田 (Ota),2013-06-18,21:01～22:00,0.0518,0.0449,0.0485,
大田 (Ota),2013-06-18,20:01～21:00,0.0511,0.0454,0.0482,
大田 (Ota),2013-06-18,19:01～20:00,0.0513,0.0456,0.0483,
大田 (Ota),2013-06-18,18:01～19:00,0.0520,0.0463,0.0488,
大田 (Ota),2013-06-18,17:01～18:00,0.0525,0.0450,0.0488,
大田 (Ota),2013-06-18,16:01～17:00,0.0526,0.0443,0.0488,
大田 (Ota),2013-06-18,15:01～16:00,0.0540,0.0457,0.0486,
大田 (Ota),2013-06-18,14:01～15:00,0.0523,0.0458,0.0486,
大田 (Ota),2013-06-18,13:01～14:00,0.0531,0.0447,0.0483,
大田 (Ota),2013-06-18,12:01～13:00,0.0512,0.0459,0.0481,
大田 (Ota),2013-06-18,11:01～12:00,0.0514,0.0458,0.0482,
大田 (Ota),2013-06-18,10:01～11:00,0.0531,0.0447,0.0484,
大田 (Ota),2013-06-18,09:01～10:00,0.0510,0.0448,0.0480,
大田 (Ota),2013-06-18,08:01～09:00,0.0518,0.0462,0.0485,
大田 (Ota),2013-06-18,07:01～08:00,0.0519,0.0442,0.0479,
大田 (Ota),2013-06-18,06:01～07:00,0.0513,0.0448,0.0484,
大田 (Ota),2013-06-18,05:01～06:00,0.0518,0.0452,0.0483,
大田 (Ota),2013-06-18,04:01～05:00,0.0512,0.0446,0.0482,
大田 (Ota),2013-06-18,03:01～04:00,0.0518,0.0456,0.0480,
大田 (Ota),2013-06-18,02:01～03:00,0.0510,0.0446,0.0482,
大田 (Ota),2013-06-18,01:01～02:00,0.0526,0.0428,0.0482,
大田 (Ota),2013-06-18,00:01～01:00,0.0504,0.0435,0.0480,
大田 (Ota),2013-06-17,23:01～24:00,0.0520,0.0455,0.0483,
大田 (Ota),2013-06-17,22:01～23:00,0.0510,0.0450,0.0480,
大田 (Ota),2013-06-17,21:01～22:00,0.0507,0.0444,0.0481,
大田 (Ota),2013-06-17,20:01～21:00,0.0513,0.0456,0.0482,
大田 (Ota),2013-06-17,19:01～20:00,0.0508,0.0444,0.0480,
大田 (Ota),2013-06-17,18:01～19:00,0.0511,0.0445,0.0483,
大田 (Ota),2013-06-17,17:01～18:00,0.0519,0.0449,0.0484,
大田 (Ota),2013-06-17,16:01～17:00,0.0514,0.0452,0.0479,
大田 (Ota),2013-06-17,15:01～16:00,0.0504,0.0428,0.0477,
大田 (Ota),2013-06-17,14:01～15:00,0.0505,0.0438,0.0475,
大田 (Ota),2013-06-17,13:01～14:00,0.0522,0.0453,0.0479,
大田 (Ota),2013-06-17,12:01～13:00,0.0532,0.0452,0.0479,
大田 (Ota),2013-06-17,11:01～12:00,0.0518,0.0446,0.0479,
大田 (Ota),2013-06-17,10:01～11:00,0.0512,0.0446,0.0479,
大田 (Ota),2013-06-17,09:01～10:00,0.0506,0.0452,0.0479,
大田 (Ota),2013-06-17,08:01～09:00,0.0529,0.0443,0.0478,
大田 (Ota),2013-06-17,07:01～08:00,0.0500,0.0440,0.0477,
大田 (Ota),2013-06-17,06:01～07:00,0.0513,0.0441,0.0478,
大田 (Ota),2013-06-17,05:01～06:00,0.0509,0.0440,0.0476,
大田 (Ota),2013-06-17,04:01～05:00,0.0509,0.0409,0.0472,
大田 (Ota),2013-06-17,03:01～04:00,0.0508,0.0443,0.0479,
大田 (Ota),2013-06-17,02:01～03:00,0.0518,0.0450,0.0476,
大田 (Ota),2013-06-17,01:01～02:00,0.0515,0.0448,0.0477,
大田 (Ota),2013-06-17,00:01～01:00,0.0503,0.0445,0.0474,
